Location: *
(50.3440°N, 18.6237°E)
Time: 18:31:17
(UTC+00:00)

ARGOS - Pass Details

Date: 30 November 2020
Orbit: 820 x 835 km, 98.4° (Epoch: 23 January)

Event Time Altitude Azimuth Distance (km) Brightness Sun altitude
Exits shadow 16:45:47 30° 57° (ENE) 1,454 3.9 -18.4°
Drops below altitude 10° 16:50:12 10° 2° (N) 2,444 5.5 -19.1°
Sets 16:52:47 0° 352° (N) 3,380 6.3 -19.5°
